PAY3236 WMKK-RKPC

Flight info

Callsign PAY3236
Flight time 5h 13m
Altitude 37000
Route VPK L629 DOLOX M771 DUDIS/K0869F350 M771 DAGAG M765 ALDAS/K0863F360 L625 ANOKI/N0466F360 L625 ABVAR/N0462F370 M646 POTIB Q11 TACLE B591 TITUS Q11 WP900 L4 LIPLO Y741 ATOTI Y722 SOSDO SOSDO2P
Aircraft A21N/M-SDE2E3FGHIRWXYZ/LB1

Departure

Time 2026-05-05 15:18
Airport Kuala Lumpur International Airport (WMKK)

Arrival

Time 2026-05-05 20:32
Airport Jeju International Airport (RKPC)
Time Latitude Longitude Altitude Speed Heading
2026-05-05 15:06 2.74776 101.71722 73 ft 0 kts 146°
2026-05-05 15:10 2.74785 101.71715 73 ft 3 kts 146°
2026-05-05 15:10 2.74806 101.71699 73 ft 3 kts 137°
2026-05-05 15:10 2.74813 101.71679 73 ft 3 kts 83°
2026-05-05 15:10 2.74807 101.71664 74 ft 0 kts 53°
2026-05-05 15:12 2.74808 101.71666 74 ft 1 kts 53°
2026-05-05 15:13 2.74823 101.71686 73 ft 5 kts 52°
2026-05-05 15:13 2.74857 101.71727 71 ft 9 kts 51°
2026-05-05 15:13 2.74900 101.71790 69 ft 11 kts 74°
2026-05-05 15:13 2.74857 101.71847 69 ft 10 kts 141°
2026-05-05 15:14 2.74803 101.71886 72 ft 8 kts 145°
2026-05-05 15:14 2.74761 101.71915 73 ft 6 kts 146°
2026-05-05 15:14 2.74729 101.71939 74 ft 5 kts 136°
2026-05-05 15:14 2.74712 101.71966 75 ft 3 kts 107°
2026-05-05 15:15 2.74712 101.71992 75 ft 3 kts 73°
2026-05-05 15:15 2.74727 101.72021 76 ft 5 kts 59°
2026-05-05 15:15 2.74747 101.72055 76 ft 5 kts 59°
2026-05-05 15:15 2.74767 101.72086 77 ft 4 kts 57°
2026-05-05 15:16 2.74783 101.72111 77 ft 3 kts 57°
2026-05-05 15:16 2.74799 101.72137 79 ft 4 kts 56°
2026-05-05 15:16 2.74819 101.72166 80 ft 5 kts 54°
2026-05-05 15:16 2.74860 101.72186 80 ft 7 kts 352°
2026-05-05 15:17 2.74879 101.72177 79 ft 0 kts 320°
2026-05-05 15:17 2.74896 101.72164 78 ft 24 kts 323°
2026-05-05 15:17 2.75293 101.71902 67 ft 108 kts 326°
2026-05-05 15:17 2.76110 101.71350 69 ft 173 kts 327°
2026-05-05 15:18 2.77193 101.70603 455 ft 196 kts 326°
2026-05-05 15:18 2.78283 101.69855 1458 ft 189 kts 328°
2026-05-05 15:18 2.79391 101.69212 2303 ft 190 kts 345°
2026-05-05 15:18 2.80742 101.69279 2898 ft 202 kts 22°
2026-05-05 15:19 2.81866 101.70129 3352 ft 214 kts 54°
2026-05-05 15:19 2.82392 101.71584 3707 ft 236 kts 85°
2026-05-05 15:19 2.82520 101.73283 4157 ft 254 kts 77°
2026-05-05 15:19 2.83094 101.74985 4763 ft 264 kts 67°
2026-05-05 15:20 2.83810 101.76677 5466 ft 270 kts 67°
2026-05-05 15:20 2.84524 101.78435 6256 ft 273 kts 68°
2026-05-05 15:20 2.85200 101.80205 7018 ft 275 kts 69°
2026-05-05 15:20 2.85847 101.81988 7728 ft 277 kts 70°
2026-05-05 15:21 2.86488 101.83815 8394 ft 281 kts 71°
2026-05-05 15:21 2.87129 101.85686 9075 ft 284 kts 71°
2026-05-05 15:21 2.87758 101.87547 9728 ft 287 kts 71°
2026-05-05 15:21 2.88399 101.89459 10361 ft 290 kts 71°
2026-05-05 15:22 2.89048 101.91406 10721 ft 304 kts 72°
2026-05-05 15:22 2.89731 101.93460 11002 ft 319 kts 72°
2026-05-05 15:22 2.90449 101.95624 11279 ft 335 kts 72°
2026-05-05 15:22 2.91204 101.97902 11541 ft 350 kts 72°
2026-05-05 15:23 2.91979 102.00241 11793 ft 364 kts 72°
2026-05-05 15:23 2.92797 102.02711 12029 ft 378 kts 72°
2026-05-05 15:23 2.93636 102.05244 12251 ft 391 kts 72°
2026-05-05 15:23 2.94503 102.07863 12489 ft 402 kts 72°
2026-05-05 15:24 2.95393 102.10552 12916 ft 407 kts 72°
2026-05-05 15:24 2.96284 102.13245 13415 ft 410 kts 72°
2026-05-05 15:24 2.97182 102.15962 13901 ft 413 kts 72°
2026-05-05 15:24 2.98085 102.18692 14347 ft 416 kts 72°
2026-05-05 15:25 2.98992 102.21436 14817 ft 417 kts 72°
2026-05-05 15:25 2.99906 102.24201 15249 ft 420 kts 72°
2026-05-05 15:25 3.00820 102.26965 15707 ft 422 kts 72°
2026-05-05 15:25 3.01744 102.29760 16090 ft 425 kts 72°
2026-05-05 15:26 3.02675 102.32577 16468 ft 428 kts 72°
2026-05-05 15:26 3.03613 102.35415 16859 ft 430 kts 72°
2026-05-05 15:26 3.04551 102.38254 17246 ft 432 kts 72°
2026-05-05 15:26 3.05492 102.41103 17602 ft 434 kts 72°
2026-05-05 15:27 3.06446 102.43990 17962 ft 436 kts 72°
2026-05-05 15:27 3.07400 102.46874 18296 ft 439 kts 72°
2026-05-05 15:27 3.08366 102.49793 18619 ft 441 kts 72°
2026-05-05 15:27 3.09324 102.52692 18939 ft 443 kts 72°
2026-05-05 15:28 3.10306 102.55668 19261 ft 446 kts 72°
2026-05-05 15:28 3.11262 102.58560 19563 ft 448 kts 72°
2026-05-05 15:28 3.12244 102.61533 19863 ft 450 kts 72°
2026-05-05 15:28 3.13224 102.64501 20162 ft 452 kts 72°
2026-05-05 15:29 3.14213 102.67496 20466 ft 454 kts 72°
2026-05-05 15:29 3.15205 102.70501 20770 ft 455 kts 72°
2026-05-05 15:29 3.16192 102.73494 21055 ft 457 kts 72°
2026-05-05 15:29 3.17201 102.76553 21309 ft 459 kts 72°
2026-05-05 15:30 3.18207 102.79600 21591 ft 461 kts 72°
2026-05-05 15:30 3.19204 102.82624 21933 ft 460 kts 72°
2026-05-05 15:30 3.20207 102.85662 22276 ft 460 kts 72°
2026-05-05 15:30 3.21168 102.88578 22599 ft 460 kts 72°
2026-05-05 15:31 3.22173 102.91626 23107 ft 456 kts 72°
2026-05-05 15:31 3.23151 102.94592 23869 ft 445 kts 72°
2026-05-05 15:31 3.24113 102.97511 24703 ft 437 kts 72°
2026-05-05 15:31 3.25041 103.00325 25584 ft 427 kts 72°
2026-05-05 15:32 3.25960 103.03112 26465 ft 417 kts 72°
2026-05-05 15:32 3.26849 103.05808 27323 ft 406 kts 72°
2026-05-05 15:32 3.27716 103.08440 28161 ft 396 kts 72°
2026-05-05 15:32 3.28575 103.11046 28948 ft 387 kts 72°
2026-05-05 15:33 3.29404 103.13561 29386 ft 386 kts 72°
2026-05-05 15:33 3.30255 103.16145 29671 ft 390 kts 72°
2026-05-05 15:33 3.31109 103.18738 29963 ft 393 kts 72°
2026-05-05 15:33 3.31960 103.21324 30260 ft 396 kts 72°
2026-05-05 15:34 3.32826 103.23955 30541 ft 398 kts 72°
2026-05-05 15:34 3.33696 103.26598 30829 ft 401 kts 72°
2026-05-05 15:34 3.34566 103.29242 31112 ft 403 kts 72°
2026-05-05 15:34 3.35437 103.31887 31387 ft 405 kts 72°
2026-05-05 15:35 3.36321 103.34573 31651 ft 407 kts 72°
2026-05-05 15:35 3.37243 103.37286 31894 ft 410 kts 70°
2026-05-05 15:35 3.38312 103.39919 32130 ft 412 kts 66°
2026-05-05 15:35 3.39570 103.42510 32382 ft 414 kts 63°
2026-05-05 15:36 3.40991 103.45004 32638 ft 416 kts 59°
2026-05-05 15:36 3.42587 103.47417 32904 ft 417 kts 56°
2026-05-05 15:36 3.44266 103.49784 33141 ft 419 kts 55°
2026-05-05 15:36 3.45966 103.52161 33388 ft 420 kts 55°
2026-05-05 15:37 3.47680 103.54559 33643 ft 421 kts 55°
2026-05-05 15:37 3.49381 103.56942 33861 ft 423 kts 55°
2026-05-05 15:37 3.51089 103.59341 34076 ft 424 kts 55°
2026-05-05 15:37 3.52803 103.61746 34282 ft 426 kts 55°
2026-05-05 15:38 3.54510 103.64145 34476 ft 427 kts 55°
2026-05-05 15:38 3.56249 103.66589 34674 ft 428 kts 55°
2026-05-05 15:38 3.57975 103.69016 34866 ft 429 kts 55°
2026-05-05 15:38 3.59706 103.71448 35047 ft 430 kts 55°
2026-05-05 15:39 3.61448 103.73887 35227 ft 431 kts 55°
2026-05-05 15:39 3.63218 103.76323 35412 ft 432 kts 54°
2026-05-05 15:39 3.64986 103.78746 35581 ft 433 kts 54°
2026-05-05 15:39 3.66756 103.81175 35743 ft 433 kts 54°
2026-05-05 15:40 3.68538 103.83623 35895 ft 434 kts 54°
2026-05-05 15:40 3.70310 103.86060 36041 ft 435 kts 54°
2026-05-05 15:40 3.72087 103.88504 36175 ft 436 kts 54°
2026-05-05 15:40 3.73861 103.90948 36293 ft 437 kts 54°
2026-05-05 15:41 3.75656 103.93420 36411 ft 438 kts 54°
2026-05-05 15:41 3.79246 103.98366 36610 ft 440 kts 54°
2026-05-05 15:41 3.81039 104.00836 36725 ft 441 kts 54°
2026-05-05 15:42 3.82845 104.03326 36839 ft 441 kts 54°
2026-05-05 15:42 3.86481 104.08336 36851 ft 446 kts 54°
2026-05-05 15:43 3.90164 104.13382 36852 ft 450 kts 54°
2026-05-05 15:43 3.93857 104.18426 36852 ft 453 kts 54°
2026-05-05 15:44 3.97592 104.23533 36851 ft 455 kts 54°
2026-05-05 15:44 4.01327 104.28643 36851 ft 457 kts 54°
2026-05-05 15:45 4.05089 104.33793 36851 ft 459 kts 54°
2026-05-05 15:45 4.08864 104.38962 36851 ft 460 kts 54°
2026-05-05 15:46 4.12496 104.43935 36849 ft 449 kts 54°
2026-05-05 15:46 4.16181 104.48986 36851 ft 448 kts 54°
2026-05-05 15:47 4.19837 104.53997 36851 ft 448 kts 54°
2026-05-05 15:47 4.23514 104.59036 36847 ft 448 kts 54°
2026-05-05 15:48 4.27202 104.64094 36837 ft 448 kts 54°
2026-05-05 15:48 4.30859 104.69109 36832 ft 448 kts 54°
2026-05-05 15:49 4.34547 104.74170 36831 ft 448 kts 54°
2026-05-05 15:49 4.38206 104.79189 36830 ft 448 kts 54°
2026-05-05 15:50 4.41895 104.84232 36830 ft 448 kts 54°
2026-05-05 15:50 4.45581 104.89264 36833 ft 447 kts 54°
2026-05-05 15:51 4.49262 104.94297 36840 ft 448 kts 54°
2026-05-05 15:51 4.52933 104.99316 36842 ft 446 kts 54°
2026-05-05 15:52 4.56588 105.04316 36848 ft 446 kts 54°
2026-05-05 15:52 4.60258 105.09340 36851 ft 446 kts 54°
2026-05-05 15:53 4.63916 105.14351 36851 ft 447 kts 54°
2026-05-05 15:53 4.67603 105.19399 36852 ft 446 kts 54°
2026-05-05 15:54 4.71245 105.24390 36851 ft 445 kts 55°
2026-05-05 15:54 4.74909 105.29409 36851 ft 445 kts 54°
2026-05-05 15:55 4.78816 105.34209 36851 ft 446 kts 49°
2026-05-05 15:55 4.83249 105.38585 36851 ft 446 kts 43°
2026-05-05 15:56 4.88108 105.42431 36851 ft 447 kts 37°
2026-05-05 15:56 4.93316 105.45879 36851 ft 448 kts 35°
2026-05-05 15:57 4.98553 105.49282 36851 ft 448 kts 35°
2026-05-05 15:57 5.03803 105.52696 36852 ft 448 kts 35°
2026-05-05 15:58 5.09006 105.56082 36851 ft 447 kts 35°
2026-05-05 15:58 5.14242 105.59493 36851 ft 447 kts 35°
2026-05-05 15:59 5.19446 105.62884 36851 ft 447 kts 34°
2026-05-05 15:59 5.24689 105.66301 36852 ft 447 kts 34°
2026-05-05 16:00 5.29927 105.69714 36851 ft 448 kts 35°
2026-05-05 16:00 5.35174 105.73133 36849 ft 447 kts 35°
2026-05-05 16:01 5.40390 105.76533 36847 ft 447 kts 35°
2026-05-05 16:01 5.45594 105.79928 36840 ft 446 kts 34°
2026-05-05 16:02 5.50787 105.83316 36834 ft 446 kts 34°
2026-05-05 16:02 5.56036 105.86740 36831 ft 447 kts 34°
2026-05-05 16:03 5.61248 105.90141 36831 ft 447 kts 34°
2026-05-05 16:03 5.66457 105.93539 36831 ft 446 kts 34°
2026-05-05 16:04 5.71667 105.96941 36831 ft 445 kts 34°
2026-05-05 16:04 5.76835 106.00315 36831 ft 444 kts 34°
2026-05-05 16:05 5.82041 106.03715 36830 ft 444 kts 34°
2026-05-05 16:05 5.87202 106.07088 36832 ft 444 kts 34°
2026-05-05 16:06 5.92390 106.10477 36832 ft 445 kts 34°
2026-05-05 16:06 5.97600 106.13882 36831 ft 444 kts 34°
2026-05-05 16:07 6.02766 106.17258 36833 ft 443 kts 34°
2026-05-05 16:07 6.07943 106.20643 36837 ft 443 kts 34°
2026-05-05 16:08 6.13147 106.24046 36845 ft 444 kts 34°
2026-05-05 16:08 6.18343 106.27447 36848 ft 445 kts 34°
2026-05-05 16:09 6.23532 106.30842 36849 ft 446 kts 34°
2026-05-05 16:09 6.28717 106.34234 36851 ft 446 kts 34°
2026-05-05 16:10 6.33939 106.37652 36851 ft 445 kts 34°
2026-05-05 16:10 6.39139 106.41058 36851 ft 446 kts 34°
2026-05-05 16:11 6.44355 106.44474 36851 ft 445 kts 34°
2026-05-05 16:12 6.54762 106.51292 36851 ft 447 kts 34°
2026-05-05 16:13 6.67813 106.59849 36852 ft 447 kts 34°
2026-05-05 16:13 6.73015 106.63261 36852 ft 448 kts 34°
2026-05-05 16:14 6.83465 106.70120 36842 ft 448 kts 34°
2026-05-05 16:15 6.93933 106.76996 36831 ft 448 kts 34°
2026-05-05 16:16 7.04385 106.83861 36830 ft 448 kts 34°
2026-05-05 16:17 7.12239 106.89022 36831 ft 449 kts 34°
2026-05-05 16:18 7.20094 106.94192 36831 ft 450 kts 34°
2026-05-05 16:19 7.27950 106.99364 36831 ft 450 kts 34°
2026-05-05 16:19 7.35817 107.04546 36831 ft 451 kts 34°
2026-05-05 16:20 7.46328 107.11475 36831 ft 451 kts 34°
2026-05-05 16:22 7.59513 107.20171 36831 ft 452 kts 34°
2026-05-05 16:23 7.70044 107.27121 36828 ft 452 kts 34°
2026-05-05 16:23 7.77926 107.32326 36833 ft 452 kts 34°
2026-05-05 16:24 7.83219 107.35822 36831 ft 452 kts 34°
2026-05-05 16:25 7.91119 107.41043 36831 ft 452 kts 34°
2026-05-05 16:25 7.99019 107.46265 36836 ft 453 kts 34°
2026-05-05 16:26 8.09585 107.53254 36846 ft 453 kts 34°
2026-05-05 16:27 8.14833 107.56728 36849 ft 453 kts 34°
2026-05-05 16:27 8.20130 107.60235 36846 ft 454 kts 34°
2026-05-05 16:28 8.25408 107.63730 36841 ft 454 kts 34°
2026-05-05 16:28 8.30698 107.67234 36836 ft 455 kts 34°
2026-05-05 16:29 8.36020 107.70760 36832 ft 455 kts 34°
2026-05-05 16:29 8.41320 107.74275 36831 ft 455 kts 34°
2026-05-05 16:30 8.46596 107.77773 36831 ft 457 kts 34°
2026-05-05 16:30 8.51941 107.81319 36831 ft 460 kts 34°
2026-05-05 16:31 8.57304 107.84879 36830 ft 463 kts 34°
2026-05-05 16:31 8.62705 107.88463 36830 ft 465 kts 34°
2026-05-05 16:32 8.68142 107.92073 36831 ft 467 kts 34°
2026-05-05 16:32 8.73570 107.95679 36830 ft 468 kts 34°
2026-05-05 16:33 8.79034 107.99309 36830 ft 468 kts 34°
2026-05-05 16:33 8.84449 108.02909 36830 ft 467 kts 34°
2026-05-05 16:34 8.89900 108.06534 36831 ft 468 kts 34°
2026-05-05 16:34 8.95332 108.10149 36830 ft 468 kts 34°
2026-05-05 16:35 9.00819 108.13800 36831 ft 469 kts 34°
2026-05-05 16:35 9.06243 108.17413 36831 ft 469 kts 34°
2026-05-05 16:36 9.11719 108.21060 36834 ft 469 kts 34°
2026-05-05 16:36 9.17161 108.24686 36833 ft 468 kts 34°
2026-05-05 16:37 9.22597 108.28310 36835 ft 467 kts 34°
2026-05-05 16:37 9.28050 108.31949 36841 ft 467 kts 34°
2026-05-05 16:38 9.33484 108.35575 36845 ft 467 kts 34°
2026-05-05 16:38 9.38847 108.39236 36843 ft 467 kts 37°
2026-05-05 16:39 9.43676 108.43640 36846 ft 467 kts 47°
2026-05-05 16:39 9.47630 108.48840 36847 ft 468 kts 58°
2026-05-05 16:40 9.50614 108.54703 36848 ft 468 kts 66°
2026-05-05 16:40 9.53076 108.60819 36847 ft 468 kts 68°
2026-05-05 16:41 9.55500 108.66909 36850 ft 468 kts 68°
2026-05-05 16:41 9.57952 108.73039 36850 ft 469 kts 67°
2026-05-05 16:42 9.60394 108.79133 36849 ft 469 kts 67°
2026-05-05 16:42 9.62835 108.85223 36847 ft 469 kts 67°
2026-05-05 16:43 9.65285 108.91338 36843 ft 469 kts 67°
2026-05-05 16:43 9.67736 108.97459 36838 ft 469 kts 67°
2026-05-05 16:44 9.70190 109.03593 36833 ft 470 kts 67°
2026-05-05 16:44 9.72651 109.09740 36831 ft 470 kts 67°
2026-05-05 16:45 9.75087 109.15841 36830 ft 470 kts 67°
2026-05-05 16:45 9.77543 109.21992 36830 ft 470 kts 67°
2026-05-05 16:46 9.79989 109.28117 36830 ft 470 kts 67°
2026-05-05 16:46 9.82445 109.34258 36831 ft 470 kts 67°
2026-05-05 16:47 9.84897 109.40402 36830 ft 470 kts 67°
2026-05-05 16:47 9.87335 109.46516 36830 ft 470 kts 67°
2026-05-05 16:48 9.89782 109.52659 36830 ft 471 kts 67°
2026-05-05 16:48 9.92234 109.58816 36831 ft 471 kts 67°
2026-05-05 16:49 9.94677 109.64956 36830 ft 471 kts 67°
2026-05-05 16:49 9.97133 109.71132 36830 ft 471 kts 67°
2026-05-05 16:50 9.99580 109.77287 36831 ft 473 kts 67°
2026-05-05 16:50 10.02039 109.83481 36831 ft 472 kts 67°
2026-05-05 16:51 10.04490 109.89656 36831 ft 472 kts 67°
2026-05-05 16:51 10.06927 109.95801 36832 ft 472 kts 67°
2026-05-05 16:52 10.09371 110.01963 36833 ft 473 kts 67°
2026-05-05 16:52 10.11778 110.08041 36834 ft 473 kts 68°
2026-05-05 16:53 10.14218 110.14206 36833 ft 474 kts 68°
2026-05-05 16:53 10.16671 110.20406 36832 ft 473 kts 67°
2026-05-05 16:54 10.19117 110.26595 36835 ft 473 kts 67°
2026-05-05 16:54 10.21553 110.32765 36839 ft 473 kts 68°
2026-05-05 16:55 10.23999 110.38959 36845 ft 473 kts 68°
2026-05-05 16:55 10.26436 110.45140 36848 ft 473 kts 67°
2026-05-05 16:56 10.28884 110.51356 36850 ft 473 kts 68°
2026-05-05 16:56 10.31312 110.57529 36851 ft 473 kts 68°
2026-05-05 16:57 10.33762 110.63762 36851 ft 474 kts 68°
2026-05-05 16:57 10.36201 110.69971 36851 ft 474 kts 68°
2026-05-05 16:58 10.38639 110.76181 36850 ft 474 kts 68°
2026-05-05 16:58 10.41070 110.82376 36846 ft 474 kts 68°
2026-05-05 16:59 10.43501 110.88577 36841 ft 474 kts 68°
2026-05-05 16:59 10.46358 110.94589 36834 ft 472 kts 54°
2026-05-05 17:00 10.50778 110.99524 36843 ft 472 kts 43°
2026-05-05 17:00 10.55522 111.04100 36840 ft 472 kts 43°
2026-05-05 17:01 10.60291 111.08721 36841 ft 474 kts 43°
2026-05-05 17:01 10.65037 111.13352 36836 ft 475 kts 43°
2026-05-05 17:02 10.69823 111.18040 36832 ft 476 kts 43°
2026-05-05 17:02 10.74572 111.22696 36831 ft 475 kts 43°
2026-05-05 17:03 10.79328 111.27364 36831 ft 475 kts 43°
2026-05-05 17:03 10.84074 111.32024 36831 ft 475 kts 43°
2026-05-05 17:04 10.88843 111.36708 36830 ft 476 kts 43°
2026-05-05 17:04 10.93602 111.41386 36831 ft 476 kts 43°
2026-05-05 17:05 10.98376 111.46080 36831 ft 476 kts 43°
2026-05-05 17:05 11.03149 111.50778 36831 ft 477 kts 43°
2026-05-05 17:06 11.07892 111.55446 36832 ft 477 kts 43°
2026-05-05 17:06 11.12536 111.60017 36832 ft 476 kts 43°
2026-05-05 17:07 11.17306 111.64716 36833 ft 476 kts 43°
2026-05-05 17:07 11.22056 111.69398 36832 ft 476 kts 43°
2026-05-05 17:08 11.26802 111.74080 36832 ft 476 kts 43°
2026-05-05 17:08 11.31584 111.78799 36834 ft 477 kts 43°
2026-05-05 17:09 11.36350 111.83502 36839 ft 477 kts 43°
2026-05-05 17:09 11.41103 111.88197 36841 ft 477 kts 43°
2026-05-05 17:10 11.45858 111.92895 36842 ft 477 kts 43°
2026-05-05 17:10 11.50621 111.97603 36847 ft 477 kts 43°
2026-05-05 17:11 11.55375 112.02305 36850 ft 476 kts 43°
2026-05-05 17:11 11.60152 112.07034 36853 ft 477 kts 43°
2026-05-05 17:12 11.64909 112.11742 36852 ft 477 kts 43°
2026-05-05 17:12 11.69665 112.16454 36852 ft 478 kts 43°
2026-05-05 17:13 11.74447 112.21193 36852 ft 477 kts 43°
2026-05-05 17:13 11.79212 112.25917 36852 ft 477 kts 43°
2026-05-05 17:14 11.83941 112.30609 36851 ft 477 kts 43°
2026-05-05 17:14 11.88707 112.35340 36850 ft 477 kts 43°
2026-05-05 17:15 11.93463 112.40062 36850 ft 478 kts 43°
2026-05-05 17:15 11.98230 112.44799 36850 ft 479 kts 43°
2026-05-05 17:16 12.03030 112.49572 36853 ft 479 kts 43°
2026-05-05 17:16 12.07776 112.54292 36852 ft 478 kts 43°
2026-05-05 17:17 12.12550 112.59043 36851 ft 478 kts 43°
2026-05-05 17:17 12.17309 112.63783 36848 ft 478 kts 43°
2026-05-05 17:18 12.22046 112.68502 36843 ft 478 kts 43°
2026-05-05 17:18 12.26828 112.73267 36842 ft 478 kts 43°
2026-05-05 17:19 12.31581 112.78006 36841 ft 479 kts 43°
2026-05-05 17:19 12.36369 112.82784 36840 ft 479 kts 43°
2026-05-05 17:20 12.41115 112.87524 36840 ft 479 kts 42°
2026-05-05 17:20 12.45893 112.92296 36842 ft 479 kts 42°
2026-05-05 17:21 12.50646 112.97046 36841 ft 478 kts 43°
2026-05-05 17:22 12.57808 113.04208 36840 ft 478 kts 42°
2026-05-05 17:22 12.62560 113.08965 36844 ft 479 kts 42°
2026-05-05 17:23 12.67302 113.13713 36843 ft 479 kts 42°
2026-05-05 17:23 12.72072 113.18494 36842 ft 479 kts 42°
2026-05-05 17:24 12.76860 113.23291 36834 ft 479 kts 42°
2026-05-05 17:24 12.81589 113.28036 36833 ft 479 kts 42°
2026-05-05 17:25 12.86365 113.32827 36832 ft 479 kts 42°
2026-05-05 17:25 12.91128 113.37609 36831 ft 479 kts 42°
2026-05-05 17:26 12.95890 113.42396 36833 ft 479 kts 42°
2026-05-05 17:26 13.00663 113.47193 36837 ft 479 kts 42°
2026-05-05 17:27 13.05421 113.51980 36846 ft 479 kts 42°
2026-05-05 17:27 13.10190 113.56780 36851 ft 479 kts 42°
2026-05-05 17:28 13.14956 113.61578 36851 ft 479 kts 42°
2026-05-05 17:28 13.19704 113.66363 36850 ft 479 kts 42°
2026-05-05 17:29 13.24451 113.71147 36851 ft 479 kts 42°
2026-05-05 17:29 13.29223 113.75962 36851 ft 479 kts 42°
2026-05-05 17:30 13.33966 113.80750 36851 ft 479 kts 42°
2026-05-05 17:30 13.38734 113.85565 36851 ft 479 kts 42°
2026-05-05 17:31 13.43485 113.90366 36851 ft 479 kts 42°
2026-05-05 17:31 13.48239 113.95172 36851 ft 479 kts 42°
2026-05-05 17:32 13.52987 113.99976 36851 ft 480 kts 42°
2026-05-05 17:32 13.57732 114.04781 36851 ft 480 kts 42°
2026-05-05 17:33 13.62511 114.09621 36851 ft 480 kts 42°
2026-05-05 17:33 13.67249 114.14425 36851 ft 480 kts 42°
2026-05-05 17:34 13.72001 114.19244 36851 ft 480 kts 42°
2026-05-05 17:34 13.76763 114.24076 36851 ft 480 kts 42°
2026-05-05 17:35 13.81512 114.28899 36851 ft 481 kts 42°
2026-05-05 17:35 13.86290 114.33755 36850 ft 481 kts 42°
2026-05-05 17:36 13.91019 114.38566 36850 ft 480 kts 42°
2026-05-05 17:36 13.95782 114.43413 36851 ft 481 kts 42°
2026-05-05 17:37 14.00452 114.48366 36850 ft 481 kts 44°
2026-05-05 17:37 14.05055 114.53369 36852 ft 481 kts 44°
2026-05-05 17:38 14.09669 114.58395 36852 ft 482 kts 44°
2026-05-05 17:38 14.14273 114.63415 36848 ft 482 kts 44°
2026-05-05 17:39 14.18872 114.68432 36844 ft 483 kts 44°
2026-05-05 17:39 14.23470 114.73451 36841 ft 483 kts 44°
2026-05-05 17:40 14.28090 114.78497 36837 ft 482 kts 44°
2026-05-05 17:40 14.32677 114.83511 36834 ft 482 kts 44°
2026-05-05 17:41 14.37297 114.88562 36833 ft 483 kts 44°
2026-05-05 17:41 14.41884 114.93582 36832 ft 484 kts 44°
2026-05-05 17:42 14.46512 114.98649 36831 ft 484 kts 44°
2026-05-05 17:42 14.51124 115.03702 36831 ft 484 kts 44°
2026-05-05 17:43 14.55739 115.08764 36830 ft 484 kts 44°
2026-05-05 17:43 14.60365 115.13838 36833 ft 484 kts 44°
2026-05-05 17:44 14.64959 115.18881 36835 ft 483 kts 44°
2026-05-05 17:44 14.69560 115.23934 36843 ft 484 kts 44°
2026-05-05 17:45 14.74197 115.29033 36850 ft 485 kts 44°
2026-05-05 17:45 14.78810 115.34106 36853 ft 485 kts 44°
2026-05-05 17:46 14.83415 115.39175 36852 ft 486 kts 44°
2026-05-05 17:46 14.88040 115.44270 36851 ft 486 kts 44°
2026-05-05 17:47 14.92663 115.49366 36853 ft 486 kts 44°
2026-05-05 17:47 14.97299 115.54478 36853 ft 486 kts 44°
2026-05-05 17:48 15.01923 115.59579 36852 ft 487 kts 44°
2026-05-05 17:48 15.06553 115.64695 36855 ft 487 kts 44°
2026-05-05 17:49 15.11171 115.69797 36854 ft 486 kts 44°
2026-05-05 17:49 15.15794 115.74912 36853 ft 486 kts 44°
2026-05-05 17:50 15.20405 115.80016 36852 ft 487 kts 44°
2026-05-05 17:50 15.25015 115.85120 36851 ft 487 kts 44°
2026-05-05 17:51 15.29644 115.90252 36850 ft 488 kts 44°
2026-05-05 17:51 15.34298 115.95412 36855 ft 487 kts 44°
2026-05-05 17:52 15.38902 116.00522 36852 ft 487 kts 44°
2026-05-05 17:52 15.43525 116.05656 36849 ft 486 kts 44°
2026-05-05 17:53 15.48124 116.10768 36851 ft 486 kts 44°
2026-05-05 17:53 15.52726 116.15887 36850 ft 486 kts 44°
2026-05-05 17:54 15.57349 116.21030 36851 ft 487 kts 45°
2026-05-05 17:54 15.61979 116.26187 36852 ft 487 kts 44°
2026-05-05 17:55 15.66585 116.31324 36851 ft 487 kts 44°
2026-05-05 17:55 15.71181 116.36449 36850 ft 487 kts 44°
2026-05-05 17:56 15.75806 116.41608 36846 ft 487 kts 44°
2026-05-05 17:56 15.80428 116.46770 36850 ft 487 kts 44°
2026-05-05 17:57 15.85037 116.51920 36849 ft 488 kts 44°
2026-05-05 17:57 15.89657 116.57089 36851 ft 488 kts 45°
2026-05-05 17:58 15.94274 116.62258 36854 ft 488 kts 45°
2026-05-05 17:58 15.98864 116.67401 36849 ft 488 kts 45°
2026-05-05 17:59 16.03480 116.72575 36840 ft 488 kts 45°
2026-05-05 17:59 16.08116 116.77774 36834 ft 489 kts 45°
2026-05-05 18:00 16.12739 116.82963 36833 ft 490 kts 45°
2026-05-05 18:00 16.17371 116.88168 36830 ft 490 kts 45°
2026-05-05 18:01 16.21995 116.93368 36831 ft 489 kts 45°
2026-05-05 18:01 16.26590 116.98539 36831 ft 489 kts 45°
2026-05-05 18:02 16.31202 117.03734 36828 ft 489 kts 45°
2026-05-05 18:02 16.35816 117.08934 36835 ft 489 kts 45°
2026-05-05 18:03 16.40443 117.14155 36845 ft 490 kts 45°
2026-05-05 18:03 16.45058 117.19365 36848 ft 491 kts 45°
2026-05-05 18:04 16.49703 117.24606 36849 ft 490 kts 45°
2026-05-05 18:04 16.54330 117.29831 36849 ft 490 kts 45°
2026-05-05 18:05 16.58947 117.35052 36850 ft 490 kts 45°
2026-05-05 18:05 16.63560 117.40273 36849 ft 490 kts 45°
2026-05-05 18:06 16.68188 117.45515 36849 ft 490 kts 45°
2026-05-05 18:06 16.72786 117.50729 36852 ft 490 kts 45°
2026-05-05 18:07 16.77421 117.55988 36850 ft 490 kts 45°
2026-05-05 18:07 16.82037 117.61228 36843 ft 490 kts 45°
2026-05-05 18:08 16.86642 117.66463 36833 ft 489 kts 45°
2026-05-05 18:08 16.91223 117.71672 36831 ft 489 kts 45°
2026-05-05 18:09 16.95828 117.76913 36829 ft 489 kts 45°
2026-05-05 18:09 17.00411 117.82136 36830 ft 489 kts 45°
2026-05-05 18:10 17.05018 117.87388 36831 ft 489 kts 45°
2026-05-05 18:10 17.09602 117.92616 36831 ft 489 kts 45°
2026-05-05 18:11 17.14194 117.97858 36831 ft 489 kts 45°
2026-05-05 18:11 17.18783 118.03101 36833 ft 490 kts 45°
2026-05-05 18:12 17.23381 118.08359 36835 ft 490 kts 45°
2026-05-05 18:12 17.28390 118.13165 36835 ft 484 kts 32°
2026-05-05 18:13 17.33991 118.16997 36836 ft 483 kts 30°
2026-05-05 18:13 17.39673 118.20838 36837 ft 484 kts 30°
2026-05-05 18:14 17.45311 118.24694 36839 ft 484 kts 30°
2026-05-05 18:14 17.50942 118.28571 36842 ft 484 kts 30°
2026-05-05 18:15 17.56584 118.32465 36844 ft 485 kts 30°
2026-05-05 18:15 17.62196 118.36343 36846 ft 485 kts 30°
2026-05-05 18:16 17.67824 118.40240 36846 ft 485 kts 30°
2026-05-05 18:16 17.73482 118.44159 36848 ft 485 kts 30°
2026-05-05 18:17 17.79096 118.48049 36850 ft 484 kts 30°
2026-05-05 18:17 17.84720 118.51950 36849 ft 484 kts 30°
2026-05-05 18:18 17.90324 118.55840 36848 ft 484 kts 30°
2026-05-05 18:18 17.95946 118.59745 36847 ft 484 kts 30°
2026-05-05 18:19 18.01605 118.63680 36851 ft 485 kts 30°
2026-05-05 18:19 18.07243 118.67604 36850 ft 485 kts 31°
2026-05-05 18:20 18.12882 118.71532 36849 ft 485 kts 31°
2026-05-05 18:20 18.18515 118.75456 36845 ft 485 kts 30°
2026-05-05 18:21 18.24150 118.79387 36839 ft 485 kts 30°
2026-05-05 18:21 18.29770 118.83308 36836 ft 486 kts 30°
2026-05-05 18:22 18.35406 118.87245 36837 ft 486 kts 30°
2026-05-05 18:22 18.41045 118.91187 36837 ft 486 kts 30°
2026-05-05 18:23 18.46667 118.95121 36837 ft 486 kts 30°
2026-05-05 18:23 18.52317 118.99078 36841 ft 487 kts 30°
2026-05-05 18:24 18.57973 119.03041 36842 ft 487 kts 30°
2026-05-05 18:24 18.63592 119.06982 36842 ft 487 kts 30°
2026-05-05 18:25 18.69251 119.10954 36844 ft 487 kts 30°
2026-05-05 18:25 18.74901 119.14923 36846 ft 487 kts 30°
2026-05-05 18:26 18.80530 119.18881 36847 ft 488 kts 30°
2026-05-05 18:26 18.86217 119.22882 36846 ft 488 kts 30°
2026-05-05 18:27 18.91843 119.26845 36848 ft 488 kts 30°
2026-05-05 18:27 18.97509 119.30837 36850 ft 488 kts 30°
2026-05-05 18:28 19.05993 119.36823 36851 ft 488 kts 30°
2026-05-05 18:28 19.11660 119.40825 36855 ft 489 kts 30°
2026-05-05 18:29 19.17294 119.44807 36855 ft 489 kts 30°
2026-05-05 18:29 19.22971 119.48824 36855 ft 490 kts 30°
2026-05-05 18:30 19.28631 119.52831 36856 ft 490 kts 30°
2026-05-05 18:30 19.34301 119.56850 36858 ft 490 kts 30°
2026-05-05 18:31 19.39957 119.60862 36859 ft 491 kts 30°
2026-05-05 18:31 19.45660 119.64909 36860 ft 491 kts 30°
2026-05-05 18:32 19.51335 119.68941 36861 ft 491 kts 30°
2026-05-05 18:32 19.57014 119.72979 36864 ft 492 kts 30°
2026-05-05 18:33 19.62749 119.77062 36866 ft 492 kts 30°
2026-05-05 18:33 19.68413 119.81096 36864 ft 492 kts 30°
2026-05-05 18:34 19.74079 119.85134 36865 ft 492 kts 30°
2026-05-05 18:34 19.79800 119.89217 36869 ft 493 kts 30°
2026-05-05 18:35 19.85492 119.93282 36869 ft 493 kts 30°
2026-05-05 18:35 19.91172 119.97342 36868 ft 494 kts 30°
2026-05-05 18:36 19.96890 120.01434 36869 ft 495 kts 30°
2026-05-05 18:36 20.02610 120.05531 36871 ft 495 kts 30°
2026-05-05 18:37 20.08329 120.09629 36872 ft 496 kts 30°
2026-05-05 18:37 20.14058 120.13738 36872 ft 496 kts 30°
2026-05-05 18:38 20.19763 120.17834 36870 ft 496 kts 30°
2026-05-05 18:38 20.25492 120.21952 36868 ft 497 kts 30°
2026-05-05 18:39 20.31229 120.26078 36862 ft 498 kts 30°
2026-05-05 18:39 20.36981 120.30222 36861 ft 498 kts 30°
2026-05-05 18:40 20.42722 120.34358 36868 ft 498 kts 30°
2026-05-05 18:40 20.48466 120.38501 36872 ft 499 kts 30°
2026-05-05 18:41 20.54206 120.42644 36871 ft 498 kts 30°
2026-05-05 18:41 20.59938 120.46787 36870 ft 500 kts 30°
2026-05-05 18:42 20.65724 120.50972 36869 ft 501 kts 29°
2026-05-05 18:42 20.71502 120.55155 36871 ft 501 kts 30°
2026-05-05 18:43 20.77273 120.59339 36876 ft 501 kts 29°
2026-05-05 18:43 20.83047 120.63528 36870 ft 500 kts 30°
2026-05-05 18:44 20.88810 120.67711 36867 ft 501 kts 29°
2026-05-05 18:44 20.91806 120.69489 36857 ft 493 kts 18°
2026-05-05 18:44 20.95067 120.70685 36870 ft 488 kts 10°
2026-05-05 18:45 21.01610 120.72507 36869 ft 487 kts
2026-05-05 18:45 21.08220 120.74316 36874 ft 489 kts
2026-05-05 18:46 21.14757 120.76149 36875 ft 489 kts
2026-05-05 18:46 21.21347 120.78019 36872 ft 489 kts
2026-05-05 18:47 21.27937 120.79897 36873 ft 489 kts
2026-05-05 18:47 21.34543 120.81783 36876 ft 490 kts
2026-05-05 18:48 21.41097 120.83657 36875 ft 490 kts
2026-05-05 18:48 21.47724 120.85553 36881 ft 491 kts
2026-05-05 18:49 21.54324 120.87444 36879 ft 491 kts
2026-05-05 18:49 21.60958 120.89346 36878 ft 492 kts
2026-05-05 18:50 21.67588 120.91250 36882 ft 493 kts
2026-05-05 18:50 21.74209 120.93151 36887 ft 493 kts
2026-05-05 18:51 21.80861 120.95064 36886 ft 493 kts
2026-05-05 18:51 21.87496 120.96975 36887 ft 494 kts
2026-05-05 18:52 21.94146 120.98891 36886 ft 494 kts
2026-05-05 18:52 22.00809 121.00813 36891 ft 495 kts
2026-05-05 18:53 22.07510 121.02746 36903 ft 496 kts
2026-05-05 18:53 22.14157 121.04667 36901 ft 496 kts
2026-05-05 18:54 22.20878 121.06612 36902 ft 496 kts
2026-05-05 18:54 22.27533 121.08539 36906 ft 496 kts
2026-05-05 18:55 22.34194 121.10468 36914 ft 497 kts
2026-05-05 18:55 22.40911 121.12417 36913 ft 497 kts
2026-05-05 18:56 22.47593 121.14359 36918 ft 497 kts
2026-05-05 18:56 22.54282 121.16303 36929 ft 498 kts
2026-05-05 18:57 22.60986 121.18253 36935 ft 498 kts
2026-05-05 18:57 22.67661 121.20198 36950 ft 498 kts
2026-05-05 18:58 22.74336 121.22145 36945 ft 497 kts
2026-05-05 18:58 22.81071 121.24110 36953 ft 498 kts
2026-05-05 18:59 22.87739 121.26057 36957 ft 498 kts
2026-05-05 18:59 22.94458 121.28023 36970 ft 498 kts
2026-05-05 19:00 23.01170 121.29987 36977 ft 499 kts
2026-05-05 19:00 23.07887 121.31956 36994 ft 499 kts
2026-05-05 19:01 23.14540 121.33907 36994 ft 499 kts
2026-05-05 19:01 23.21245 121.35878 37005 ft 498 kts
2026-05-05 19:02 23.27949 121.37848 36995 ft 500 kts
2026-05-05 19:02 23.34689 121.39830 36998 ft 501 kts
2026-05-05 19:03 23.41446 121.41821 36990 ft 501 kts
2026-05-05 19:03 23.48157 121.43800 36985 ft 501 kts
2026-05-05 19:04 23.54925 121.45798 36990 ft 500 kts
2026-05-05 19:04 23.61637 121.47782 36994 ft 501 kts
2026-05-05 19:05 23.68416 121.49788 36987 ft 501 kts
2026-05-05 19:05 23.75080 121.51969 36975 ft 510 kts 17°
2026-05-05 19:06 23.81502 121.55492 36988 ft 516 kts 21°
2026-05-05 19:06 23.87853 121.59173 36987 ft 515 kts 21°
2026-05-05 19:07 23.94205 121.62801 36986 ft 515 kts 21°
2026-05-05 19:07 24.00575 121.66408 36978 ft 515 kts 21°
2026-05-05 19:08 24.06965 121.70018 36967 ft 516 kts 21°
2026-05-05 19:08 24.13352 121.73627 36945 ft 517 kts 21°
2026-05-05 19:09 24.19764 121.77257 36936 ft 517 kts 21°
2026-05-05 19:09 24.26163 121.80881 36932 ft 517 kts 21°
2026-05-05 19:10 24.32555 121.84508 36938 ft 517 kts 21°
2026-05-05 19:10 24.38954 121.88140 36934 ft 517 kts 21°
2026-05-05 19:11 24.45346 121.91773 36925 ft 517 kts 21°
2026-05-05 19:11 24.51754 121.95418 36928 ft 518 kts 21°
2026-05-05 19:12 24.58147 121.99060 36920 ft 519 kts 21°
2026-05-05 19:12 24.64549 122.02711 36921 ft 520 kts 22°
2026-05-05 19:13 24.70996 122.06395 36927 ft 520 kts 22°
2026-05-05 19:13 24.77415 122.10066 36927 ft 520 kts 21°
2026-05-05 19:14 24.83845 122.13744 36937 ft 520 kts 22°
2026-05-05 19:14 24.90228 122.17403 36931 ft 520 kts 22°
2026-05-05 19:15 24.96647 122.21087 36934 ft 520 kts 21°
2026-05-05 19:15 25.03076 122.24776 36934 ft 521 kts 22°
2026-05-05 19:16 25.09531 122.28492 36937 ft 519 kts 22°
2026-05-05 19:16 25.15941 122.32181 36932 ft 521 kts 22°
2026-05-05 19:17 25.22351 122.35874 36933 ft 521 kts 22°
2026-05-05 19:17 25.28810 122.39604 36937 ft 521 kts 22°
2026-05-05 19:18 25.35188 122.43290 36930 ft 520 kts 22°
2026-05-05 19:18 25.41623 122.47014 36931 ft 521 kts 22°
2026-05-05 19:19 25.48023 122.50721 36930 ft 521 kts 22°
2026-05-05 19:19 25.54458 122.54450 36935 ft 522 kts 22°
2026-05-05 19:20 25.60909 122.58199 36934 ft 522 kts 22°
2026-05-05 19:20 25.67360 122.61948 36932 ft 523 kts 22°
2026-05-05 19:21 25.73786 122.65688 36932 ft 524 kts 23°
2026-05-05 19:21 25.80267 122.69464 36936 ft 524 kts 23°
2026-05-05 19:22 25.86723 122.73235 36931 ft 523 kts 22°
2026-05-05 19:22 25.93157 122.76991 36941 ft 525 kts 22°
2026-05-05 19:23 25.99628 122.80776 36935 ft 525 kts 23°
2026-05-05 19:23 26.06130 122.84583 36952 ft 526 kts 23°
2026-05-05 19:24 26.12600 122.88381 36955 ft 525 kts 23°
2026-05-05 19:24 26.19079 122.92184 36959 ft 527 kts 23°
2026-05-05 19:25 26.25522 122.95972 36962 ft 526 kts 23°
2026-05-05 19:25 26.32007 122.99786 36967 ft 527 kts 24°
2026-05-05 19:26 26.38507 123.03621 36955 ft 528 kts 24°
2026-05-05 19:26 26.45023 123.07468 36959 ft 527 kts 23°
2026-05-05 19:27 26.51466 123.11275 36968 ft 528 kts 24°
2026-05-05 19:27 26.57978 123.15128 36970 ft 528 kts 24°
2026-05-05 19:28 26.64497 123.18990 36966 ft 529 kts 24°
2026-05-05 19:28 26.70997 123.22849 36970 ft 529 kts 24°
2026-05-05 19:29 26.77488 123.26704 36964 ft 529 kts 24°
2026-05-05 19:29 26.84012 123.30585 36980 ft 529 kts 24°
2026-05-05 19:30 26.90513 123.34454 36972 ft 530 kts 24°
2026-05-05 19:30 26.97022 123.38339 36966 ft 531 kts 24°
2026-05-05 19:31 27.03565 123.42245 36980 ft 531 kts 24°
2026-05-05 19:31 27.10089 123.46148 36978 ft 531 kts 24°
2026-05-05 19:32 27.16583 123.50036 36982 ft 531 kts 24°
2026-05-05 19:32 27.23116 123.53951 36975 ft 533 kts 24°
2026-05-05 19:33 27.29685 123.57895 36978 ft 532 kts 24°
2026-05-05 19:33 27.36297 123.61724 36990 ft 532 kts 20°
2026-05-05 19:34 27.43049 123.65112 36986 ft 531 kts 20°
2026-05-05 19:35 27.53178 123.70158 36994 ft 533 kts 20°
2026-05-05 19:35 27.59962 123.73599 36993 ft 532 kts 20°
2026-05-05 19:36 27.66712 123.77039 36998 ft 531 kts 20°
2026-05-05 19:36 27.73428 123.80466 36995 ft 531 kts 20°
2026-05-05 19:37 27.80206 123.83931 37009 ft 532 kts 20°
2026-05-05 19:37 27.86953 123.87381 37005 ft 532 kts 20°
2026-05-05 19:38 27.93683 123.90831 37007 ft 532 kts 20°
2026-05-05 19:38 28.00436 123.94295 37011 ft 532 kts 20°
2026-05-05 19:39 28.07152 123.97745 37016 ft 533 kts 20°
2026-05-05 19:39 28.13918 124.01228 37017 ft 533 kts 20°
2026-05-05 19:40 28.20668 124.04707 37020 ft 533 kts 20°
2026-05-05 19:40 28.27446 124.08205 37019 ft 533 kts 20°
2026-05-05 19:41 28.34184 124.11684 37022 ft 533 kts 20°
2026-05-05 19:41 28.40941 124.15183 37015 ft 534 kts 20°
2026-05-05 19:42 28.47687 124.18676 37016 ft 534 kts 20°
2026-05-05 19:42 28.54472 124.22201 37017 ft 534 kts 20°
2026-05-05 19:43 28.61205 124.25697 37015 ft 534 kts 20°
2026-05-05 19:43 28.68000 124.29231 37018 ft 535 kts 20°
2026-05-05 19:44 28.74776 124.32762 37020 ft 535 kts 20°
2026-05-05 19:44 28.81533 124.36289 37016 ft 536 kts 20°
2026-05-05 19:45 28.88337 124.39848 37015 ft 536 kts 20°
2026-05-05 19:45 28.95107 124.43391 37018 ft 536 kts 20°
2026-05-05 19:46 29.01883 124.46942 37012 ft 536 kts 20°
2026-05-05 19:46 29.08687 124.50515 37023 ft 537 kts 20°
2026-05-05 19:47 29.15495 124.54094 37011 ft 536 kts 20°
2026-05-05 19:47 29.22294 124.57674 37006 ft 536 kts 20°
2026-05-05 19:48 29.29065 124.61245 37012 ft 537 kts 21°
2026-05-05 19:48 29.35818 124.64811 37018 ft 537 kts 20°
2026-05-05 19:49 29.42612 124.68400 37025 ft 538 kts 21°
2026-05-05 19:49 29.49437 124.72015 37019 ft 537 kts 21°
2026-05-05 19:50 29.56224 124.75610 37022 ft 539 kts 21°
2026-05-05 19:50 29.62986 124.79205 37027 ft 538 kts 21°
2026-05-05 19:51 29.69818 124.82842 37025 ft 539 kts 21°
2026-05-05 19:51 29.76615 124.86465 37031 ft 538 kts 21°
2026-05-05 19:52 29.83369 124.90066 37029 ft 537 kts 21°
2026-05-05 19:52 29.90127 124.93682 37035 ft 536 kts 21°
2026-05-05 19:53 29.96907 124.97309 37038 ft 538 kts 21°
2026-05-05 19:53 30.03687 125.00938 37032 ft 538 kts 21°
2026-05-05 19:54 30.10476 125.04588 37036 ft 536 kts 21°
2026-05-05 19:54 30.17261 125.08234 37036 ft 536 kts 21°
2026-05-05 19:55 30.24005 125.11864 37031 ft 536 kts 21°
2026-05-05 19:55 30.30773 125.15512 37046 ft 537 kts 21°
2026-05-05 19:56 30.37537 125.19160 37036 ft 537 kts 21°
2026-05-05 19:56 30.44288 125.22817 37035 ft 536 kts 21°
2026-05-05 19:57 30.51034 125.26470 36895 ft 530 kts 21°
2026-05-05 19:57 30.53274 125.27688 36726 ft 525 kts 21°
2026-05-05 19:57 30.57627 125.30051 36397 ft 522 kts 21°
2026-05-05 19:57 30.60919 125.31841 36145 ft 518 kts 21°
2026-05-05 19:58 30.64184 125.33614 35895 ft 518 kts 20°
2026-05-05 19:58 30.67448 125.35387 35649 ft 517 kts 21°
2026-05-05 19:58 30.70681 125.37145 35406 ft 518 kts 21°
2026-05-05 19:58 30.73977 125.38938 35156 ft 521 kts 21°
2026-05-05 19:59 30.77256 125.40726 34905 ft 521 kts 21°
2026-05-05 19:59 30.80551 125.42526 34662 ft 523 kts 21°
2026-05-05 19:59 30.83830 125.44318 34416 ft 524 kts 21°
2026-05-05 19:59 30.87146 125.46128 34173 ft 526 kts 21°
2026-05-05 20:00 30.90447 125.47932 33930 ft 528 kts 21°
2026-05-05 20:00 30.93772 125.49753 33685 ft 530 kts 21°
2026-05-05 20:00 30.97112 125.51584 33445 ft 531 kts 21°
2026-05-05 20:00 31.00475 125.53433 33200 ft 534 kts 21°
2026-05-05 20:01 31.03840 125.55277 32946 ft 534 kts 21°
2026-05-05 20:01 31.07192 125.57116 32698 ft 534 kts 21°
2026-05-05 20:01 31.10543 125.58955 32449 ft 533 kts 21°
2026-05-05 20:01 31.13917 125.60815 32197 ft 533 kts 21°
2026-05-05 20:02 31.17260 125.62656 31950 ft 534 kts 21°
2026-05-05 20:02 31.20610 125.64500 31703 ft 535 kts 21°
2026-05-05 20:02 31.23998 125.66365 31451 ft 533 kts 22°
2026-05-05 20:02 31.27310 125.68192 31207 ft 534 kts 21°
2026-05-05 20:03 31.30710 125.70071 30960 ft 534 kts 21°
2026-05-05 20:03 31.34035 125.71908 30722 ft 534 kts 21°
2026-05-05 20:03 31.37393 125.73762 30481 ft 535 kts 21°
2026-05-05 20:03 31.40764 125.75629 30250 ft 535 kts 21°
2026-05-05 20:04 31.44150 125.77508 30004 ft 531 kts 21°
2026-05-05 20:04 31.47482 125.79353 29766 ft 533 kts 21°
2026-05-05 20:04 31.50829 125.81210 29519 ft 532 kts 21°
2026-05-05 20:04 31.54163 125.83061 29278 ft 533 kts 22°
2026-05-05 20:05 31.57515 125.84905 29035 ft 530 kts 20°
2026-05-05 20:05 31.60918 125.86577 28785 ft 524 kts 17°
2026-05-05 20:05 31.64287 125.88042 28541 ft 522 kts 15°
2026-05-05 20:05 31.67709 125.89464 28292 ft 520 kts 15°
2026-05-05 20:06 31.71151 125.90884 28046 ft 519 kts 15°
2026-05-05 20:06 31.74539 125.92291 27804 ft 517 kts 15°
2026-05-05 20:06 31.77910 125.93706 27565 ft 516 kts 16°
2026-05-05 20:06 31.81319 125.95143 27318 ft 516 kts 16°
2026-05-05 20:07 31.84680 125.96563 27088 ft 513 kts 16°
2026-05-05 20:07 31.88029 125.97980 26845 ft 510 kts 16°
2026-05-05 20:07 31.91325 125.99376 26610 ft 508 kts 16°
2026-05-05 20:07 31.94677 126.00795 26375 ft 506 kts 17°
2026-05-05 20:08 31.97966 126.02187 26135 ft 504 kts 17°
2026-05-05 20:08 32.01279 126.03592 25893 ft 502 kts 17°
2026-05-05 20:08 32.04598 126.04958 25652 ft 499 kts 13°
2026-05-05 20:08 32.07977 126.05536 25398 ft 487 kts 357°
2026-05-05 20:09 32.11353 126.05366 25162 ft 484 kts 351°
2026-05-05 20:09 32.14722 126.05009 24930 ft 482 kts 351°
2026-05-05 20:09 32.18045 126.04658 24694 ft 481 kts 351°
2026-05-05 20:09 32.21421 126.04347 24454 ft 481 kts 352°
2026-05-05 20:10 32.24726 126.04089 24213 ft 481 kts 353°
2026-05-05 20:10 32.28112 126.03853 23977 ft 481 kts 353°
2026-05-05 20:10 32.31414 126.03641 23746 ft 480 kts 353°
2026-05-05 20:10 32.34771 126.03436 23508 ft 479 kts 354°
2026-05-05 20:11 32.38081 126.03241 23180 ft 467 kts 354°
2026-05-05 20:11 32.41286 126.03056 22785 ft 456 kts 354°
2026-05-05 20:11 32.44415 126.02876 22291 ft 439 kts 354°
2026-05-05 20:11 32.47374 126.02708 21798 ft 415 kts 354°
2026-05-05 20:12 32.50159 126.02549 21308 ft 394 kts 354°
2026-05-05 20:12 32.52830 126.02396 20811 ft 375 kts 354°
2026-05-05 20:12 32.55387 126.02247 20318 ft 358 kts 354°
2026-05-05 20:12 32.57871 126.02100 19826 ft 354 kts 354°
2026-05-05 20:13 32.60327 126.01953 19332 ft 353 kts 354°
2026-05-05 20:13 32.62769 126.01807 18845 ft 352 kts 354°
2026-05-05 20:13 32.65198 126.01665 18356 ft 350 kts 354°
2026-05-05 20:13 32.67651 126.01520 17864 ft 349 kts 354°
2026-05-05 20:14 32.70069 126.01377 17120 ft 353 kts 354°
2026-05-05 20:14 32.72518 126.01232 16140 ft 353 kts 354°
2026-05-05 20:14 32.74956 126.01089 15166 ft 352 kts 355°
2026-05-05 20:14 32.77382 126.00946 14188 ft 349 kts 355°
2026-05-05 20:15 32.79784 126.00804 13220 ft 346 kts 355°
2026-05-05 20:15 32.82173 126.00665 12249 ft 343 kts 355°
2026-05-05 20:15 32.84560 126.00526 11276 ft 339 kts 355°
2026-05-05 20:15 32.86869 126.00391 10545 ft 329 kts 355°
2026-05-05 20:16 32.89104 126.00262 10095 ft 311 kts 356°
2026-05-05 20:16 32.91188 126.00143 9959 ft 285 kts 355°
2026-05-05 20:16 32.93104 126.00033 9854 ft 268 kts 356°
2026-05-05 20:16 32.94938 125.99925 9459 ft 259 kts 356°
2026-05-05 20:17 32.96714 125.99819 9042 ft 251 kts 356°
2026-05-05 20:17 32.98440 125.99716 8482 ft 252 kts 356°
2026-05-05 20:17 33.00224 125.99609 7674 ft 260 kts 356°
2026-05-05 20:17 33.02065 125.99499 6873 ft 265 kts 356°
2026-05-05 20:18 33.03874 125.99392 6244 ft 262 kts 357°
2026-05-05 20:18 33.05683 125.99286 5609 ft 260 kts 357°
2026-05-05 20:18 33.07492 125.99180 4961 ft 258 kts 357°
2026-05-05 20:18 33.09263 125.99076 4323 ft 257 kts 358°
2026-05-05 20:19 33.11041 125.98971 3740 ft 252 kts 357°
2026-05-05 20:19 33.12741 125.98875 3447 ft 238 kts 359°
2026-05-05 20:19 33.14317 125.99210 3115 ft 226 kts 32°
2026-05-05 20:19 33.15463 126.00441 2874 ft 212 kts 48°
2026-05-05 20:20 33.16445 126.01723 2550 ft 206 kts 48°
2026-05-05 20:20 33.17398 126.02927 2397 ft 198 kts 47°
2026-05-05 20:20 33.18364 126.04104 2382 ft 194 kts 47°
2026-05-05 20:20 33.19285 126.05193 2325 ft 181 kts 47°
2026-05-05 20:21 33.20198 126.06259 1895 ft 185 kts 47°
2026-05-05 20:21 33.21121 126.07324 1769 ft 180 kts 46°
2026-05-05 20:21 33.22023 126.08362 1770 ft 181 kts 46°
2026-05-05 20:21 33.22930 126.09401 1768 ft 181 kts 46°
2026-05-05 20:22 33.23846 126.10446 1767 ft 182 kts 46°
2026-05-05 20:22 33.24757 126.11484 1768 ft 182 kts 46°
2026-05-05 20:22 33.25676 126.12529 1768 ft 183 kts 46°
2026-05-05 20:22 33.26600 126.13581 1767 ft 183 kts 46°
2026-05-05 20:23 33.27533 126.14642 1767 ft 184 kts 46°
2026-05-05 20:23 33.28463 126.15700 1767 ft 183 kts 46°
2026-05-05 20:23 33.29387 126.16753 1768 ft 184 kts 46°
2026-05-05 20:23 33.30314 126.17811 1768 ft 183 kts 45°
2026-05-05 20:24 33.31243 126.18868 1768 ft 183 kts 46°
2026-05-05 20:24 33.32152 126.19904 1769 ft 182 kts 45°
2026-05-05 20:24 33.33069 126.20950 1770 ft 182 kts 45°
2026-05-05 20:24 33.33993 126.22003 1774 ft 182 kts 45°
2026-05-05 20:25 33.34909 126.23048 1776 ft 181 kts 45°
2026-05-05 20:25 33.35793 126.24055 1761 ft 166 kts 45°
2026-05-05 20:25 33.36574 126.24940 1712 ft 144 kts 46°
2026-05-05 20:25 33.37297 126.25766 1735 ft 141 kts 46°
2026-05-05 20:26 33.38010 126.26582 1754 ft 141 kts 46°
2026-05-05 20:26 33.38720 126.27397 1767 ft 142 kts 46°
2026-05-05 20:26 33.39428 126.28209 1771 ft 142 kts 46°
2026-05-05 20:26 33.40173 126.28996 1773 ft 142 kts 43°
2026-05-05 20:27 33.40892 126.29823 1775 ft 142 kts 49°
2026-05-05 20:27 33.41523 126.30715 1777 ft 141 kts 55°
2026-05-05 20:27 33.42106 126.31660 1779 ft 140 kts 57°
2026-05-05 20:27 33.42658 126.32612 1776 ft 139 kts 59°
2026-05-05 20:28 33.43186 126.33578 1775 ft 138 kts 60°
2026-05-05 20:28 33.43705 126.34563 1775 ft 138 kts 60°
2026-05-05 20:28 33.44212 126.35545 1776 ft 138 kts 60°
2026-05-05 20:28 33.44713 126.36525 1773 ft 139 kts 61°
2026-05-05 20:29 33.45220 126.37521 1775 ft 139 kts 61°
2026-05-05 20:29 33.45723 126.38508 1667 ft 139 kts 61°
2026-05-05 20:29 33.46231 126.39501 1487 ft 139 kts 61°
2026-05-05 20:29 33.46736 126.40490 1306 ft 138 kts 61°
2026-05-05 20:30 33.47236 126.41466 1124 ft 138 kts 61°
2026-05-05 20:30 33.47734 126.42442 942 ft 137 kts 61°
2026-05-05 20:30 33.48238 126.43407 756 ft 137 kts 59°
2026-05-05 20:30 33.48755 126.44380 573 ft 136 kts 62°
2026-05-05 20:31 33.49220 126.45366 429 ft 136 kts 60°
2026-05-05 20:31 33.49726 126.46326 221 ft 136 kts 60°
2026-05-05 20:31 33.50222 126.47283 81 ft 128 kts 60°
2026-05-05 20:31 33.50610 126.48053 77 ft 84 kts 59°
2026-05-05 20:32 33.50824 126.48473 74 ft 34 kts 60°
2026-05-05 20:32 33.50858 126.48570 74 ft 8 kts 73°
2026-05-05 20:32 33.50882 126.48705 73 ft 17 kts 84°
2026-05-05 20:32 33.50887 126.48859 71 ft 19 kts 89°
2026-05-05 20:33 33.50914 126.49015 72 ft 18 kts 66°
2026-05-05 20:33 33.50975 126.49138 76 ft 16 kts 53°
2026-05-05 20:33 33.51031 126.49249 78 ft 15 kts 68°
2026-05-05 20:33 33.51025 126.49340 80 ft 9 kts 137°
2026-05-05 20:34 33.50973 126.49367 83 ft 6 kts 158°
2026-05-05 20:34 33.50934 126.49379 84 ft 5 kts 178°
2026-05-05 20:34 33.50898 126.49376 84 ft 5 kts 182°
2026-05-05 20:34 33.50862 126.49376 85 ft 4 kts 178°
2026-05-05 20:35 33.50833 126.49377 86 ft 4 kts 179°
2026-05-05 20:35 33.50800 126.49377 86 ft 4 kts 180°
2026-05-05 20:35 33.50788 126.49377 87 ft 0 kts 180°
2026-05-05 20:36 33.50785 126.49377 87 ft 2 kts 180°
2026-05-05 20:36 33.50783 126.49377 87 ft 0 kts 180°